User: anonymous   Login
Location: Mount Tamalpais State Park
(37.9108°N, 122.6128°W)
Time: 10:42:35
(UTC-08:00)
Language:

Cosmos 1814 Rocket - Orbit

View from above orbital plane
View from above orbital plane
View from above satellite
View from above satellite

Ground track
Ground track

The orbit data is extracted from the following two-line orbital elements,

1 17304U 87006B   14355.10738553  .00000640  00000-0  22172-3 0  3043
2 17304 074.0608 321.3865 0029417 025.3959 047.4364 14.37413863462679
Epoch (UTC): 21 December 2014 02:34:38
Eccentricity: 0.0029417
inclination: 74.0608°
perigee height: 746 km
apogee height: 788 km
right ascension of ascending node: 321.3865°
argument of perigee: 25.3959°
revolutions per day: 14.37413863
mean anomaly at epoch: 47.4364°
orbit number at epoch: 46267

The dashed part of the orbit path shows where the satellite is in the earth's shadow,  

DLR